Weather History for Pittsburg, KS

Change the Weather History Date:

Friday, February 22, 2013

  Actual Average (KJLN) Record (KJLN)
Temperature  
Mean Temperature 26 °F 42 °F  
Max Temperature 33 °F 53 °F 87 °F (1996)
Min Temperature 20 °F 31 °F 7 °F (1963)
Degree Days  
Heating Degree Days 38 23  
Month to date heating degree days 573  
Since 1 July heating degree days 3122  
Cooling Degree Days 0 0  
Month to date cooling degree days 0  
Year to date cooling degree days 0  
Moisture  
Dew Point 23 °F    
Average Humidity 89    
Maximum Humidity 100    
Minimum Humidity 72    
Precipitation  
Precipitation 0.00 in 0.09 in 4.69 in (1985)
Month to date precipitation 1.76  
Year to date precipitation 3.79  
Sea Level Pressure  
Sea Level Pressure 30.02 in    
Wind  
Wind Speed 5 mph (West)    
Max Wind Speed 10 mph    
Max Gust Speed -    
Visibility 10 miles    
Events      
T = Trace of Precipitation, MM = Missing Value Source: NWS Daily Summary

Daily Weather History Graph

Daily Weather History Graph

Search for Another Location

Airport:

Trip Planner

Search our weather history database for the weather conditions in past years. The results will help you decide how hot, cold, wet, or windy it might be!

Date:

Astronomy

Feb. 22, 2013 Rise Set
Actual Time 6:59 AM CST 6:06 PM CST
Civil Twilight 6:32 AM CST 6:32 PM CST
Nautical Twilight 6:02 AM CST 7:02 PM CST
Astronomical Twilight 5:32 AM CST 7:33 PM CST
Moon 3:20 PM CST (2/22) 4:42 AM CST (2/22)
Length of Visible Light 11h 59m
Length of Day
11h 06m
Waxing Gibbous, 90% of the Moon is Illuminated
Feb 22
Waxing Gibbous
Feb 25
Full
Mar 4
Last Quarter
Mar 11
New
Mar 19
First Quarter

Hourly Weather History & Observations

Time (CST) Temp. Windchill Dew Point Humidity Pressure Visibility Wind Dir Wind Speed Gust Speed Precip Events Conditions
12:15 AM 33.6 °F 26.2 °F 33.6 °F 100% 29.83 in 10.0 mi WSW 9.2 mph - N/A   Overcast
12:35 AM 31.5 °F 22.9 °F 31.5 °F 100% 29.84 in 10.0 mi West 10.4 mph - N/A   Overcast
12:55 AM 29.7 °F 21.3 °F 28.2 °F 94% 29.85 in 10.0 mi West 9.2 mph - N/A   Mostly Cloudy
1:15 AM 28.2 °F 19.5 °F 26.6 °F 94% 29.86 in 10.0 mi West 9.2 mph - N/A   Overcast
1:35 AM 27.1 °F 19.7 °F 25.5 °F 94% 29.88 in 10.0 mi West 6.9 mph - N/A   Overcast
1:55 AM 26.2 °F 17.8 °F 24.6 °F 94% 29.89 in 10.0 mi West 8.1 mph - N/A   Overcast
2:15 AM 25.7 °F 16.4 °F 23.9 °F 93% 29.90 in 10.0 mi West 9.2 mph - N/A   Overcast
2:35 AM 25.5 °F 15.5 °F 23.9 °F 94% 29.90 in 10.0 mi West 10.4 mph - N/A   Overcast
2:55 AM 24.3 °F 15.4 °F 22.5 °F 93% 29.90 in 10.0 mi West 8.1 mph - N/A   Overcast
3:15 AM 23.9 °F 15.0 °F 22.5 °F 94% 29.91 in 10.0 mi West 8.1 mph - N/A   Overcast
3:35 AM 23.5 °F 16.4 °F 22.1 °F 94% 29.90 in 10.0 mi West 5.8 mph - N/A   Overcast
3:55 AM 23.5 °F 16.4 °F 22.6 °F 96% 29.90 in 10.0 mi West 5.8 mph - N/A   Overcast
4:15 AM 23.4 °F 16.2 °F 22.3 °F 96% 29.90 in 10.0 mi West 5.8 mph - N/A   Mostly Cloudy
4:35 AM 22.6 °F 15.3 °F 21.4 °F 95% 29.90 in 10.0 mi West 5.8 mph - N/A   Scattered Clouds
4:55 AM 21.9 °F 15.7 °F 20.7 °F 95% 29.90 in 10.0 mi WNW 4.6 mph - N/A   Clear
5:15 AM 21.9 °F 15.7 °F 20.8 °F 96% 29.92 in 10.0 mi WNW 4.6 mph - N/A   Scattered Clouds
5:35 AM 21.2 °F 14.9 °F 20.3 °F 96% 29.93 in 10.0 mi West 4.6 mph - N/A   Clear
5:55 AM 20.8 °F 13.2 °F 19.9 °F 96% 29.94 in 10.0 mi West 5.8 mph - N/A   Clear
6:15 AM 20.8 °F 13.2 °F 20.1 °F 97% 29.96 in 10.0 mi West 5.8 mph - N/A   Scattered Clouds
6:35 AM 20.8 °F 14.4 °F 20.1 °F 97% 29.97 in 10.0 mi West 4.6 mph - N/A   Scattered Clouds
6:55 AM 20.8 °F 16.0 °F 20.1 °F 97% 29.97 in 10.0 mi West 3.5 mph - N/A   Clear
7:15 AM 20.8 °F 16.0 °F 20.3 °F 98% 29.99 in 10.0 mi West 3.5 mph - N/A   Clear
7:35 AM 21.2 °F - 20.5 °F 97% 29.99 in 10.0 mi Calm Calm - N/A   Scattered Clouds
7:55 AM 21.4 °F 16.6 °F 21.0 °F 99% 30.01 in 10.0 mi WSW 3.5 mph - N/A   Mostly Cloudy
8:15 AM 21.9 °F 14.5 °F 21.2 °F 97% 30.02 in 10.0 mi West 5.8 mph - N/A   Scattered Clouds
8:35 AM 21.9 °F 14.5 °F 21.2 °F 97% 30.03 in 10.0 mi WSW 5.8 mph - N/A   Scattered Clouds
8:55 AM 21.9 °F 13.4 °F 21.2 °F 97% 30.04 in 10.0 mi WSW 6.9 mph - N/A   Scattered Clouds
9:15 AM 22.3 °F 16.1 °F 21.4 °F 96% 30.04 in 10.0 mi West 4.6 mph - N/A   Scattered Clouds
9:35 AM 22.8 °F 14.5 °F 21.6 °F 95% 30.04 in 10.0 mi West 6.9 mph - N/A   Mostly Cloudy
9:55 AM 23.2 °F 15.0 °F 21.7 °F 94% 30.06 in 10.0 mi West 6.9 mph - N/A   Mostly Cloudy
10:15 AM 23.9 °F 15.8 °F 21.7 °F 91% 30.07 in 10.0 mi West 6.9 mph - N/A   Scattered Clouds
10:35 AM 24.6 °F 16.7 °F 21.9 °F 89% 30.07 in 10.0 mi West 6.9 mph - N/A   Scattered Clouds
10:55 AM 25.7 °F 20.1 °F 23.2 °F 90% 30.08 in 10.0 mi West 4.6 mph - N/A   Scattered Clouds
11:15 AM 25.7 °F 20.1 °F 22.5 °F 88% 30.09 in 10.0 mi West 4.6 mph - N/A   Scattered Clouds
11:35 AM 26.2 °F 20.7 °F 22.6 °F 86% 30.09 in 10.0 mi WNW 4.6 mph - N/A   Scattered Clouds
11:55 AM 28.0 °F 24.2 °F 24.1 °F 85% 30.09 in 10.0 mi WNW 3.5 mph - N/A   Scattered Clouds
12:15 PM 28.2 °F 23.1 °F 23.5 °F 83% 30.08 in 10.0 mi WNW 4.6 mph - N/A   Scattered Clouds
12:35 PM 28.2 °F 24.4 °F 23.2 °F 81% 30.08 in 10.0 mi NW 3.5 mph - N/A   Scattered Clouds
12:55 PM 28.2 °F 23.1 °F 22.6 °F 80% 30.07 in 10.0 mi West 4.6 mph - N/A   Scattered Clouds
1:15 PM 28.2 °F 23.1 °F 22.3 °F 78% 30.06 in 10.0 mi WNW 4.6 mph - N/A   Scattered Clouds
1:35 PM 29.1 °F - 23.4 °F 79% 30.06 in 10.0 mi Calm Calm - N/A   Scattered Clouds
1:55 PM 30.0 °F 26.5 °F 23.9 °F 78% 30.07 in 10.0 mi WNW 3.5 mph - N/A   Scattered Clouds
2:15 PM 30.7 °F 26.0 °F 24.6 °F 78% 30.07 in 10.0 mi West 4.6 mph - N/A   Mostly Cloudy
2:35 PM 30.7 °F 24.9 °F 24.1 °F 76% 30.07 in 10.0 mi West 5.8 mph - N/A   Mostly Cloudy
2:55 PM 30.7 °F 27.3 °F 24.1 °F 76% 30.07 in 10.0 mi WNW 3.5 mph - N/A   Mostly Cloudy
3:15 PM 30.7 °F 27.3 °F 23.9 °F 76% 30.07 in 10.0 mi WNW 3.5 mph - N/A   Mostly Cloudy
3:35 PM 30.7 °F 27.3 °F 23.5 °F 75% 30.06 in 10.0 mi NW 3.5 mph - N/A   Mostly Cloudy
3:55 PM 30.7 °F - 23.7 °F 75% 30.06 in 10.0 mi Calm Calm - N/A   Mostly Cloudy
4:15 PM 30.7 °F 27.3 °F 23.2 °F 74% 30.06 in 10.0 mi WNW 3.5 mph - N/A   Scattered Clouds
4:35 PM 30.7 °F 27.3 °F 22.6 °F 72% 30.06 in 10.0 mi West 3.5 mph - N/A   Clear
4:55 PM 30.7 °F - 22.6 °F 72% 30.06 in 10.0 mi Calm Calm - N/A   Clear
5:15 PM 30.7 °F - 22.6 °F 72% 30.06 in 10.0 mi Calm Calm - N/A   Clear
5:35 PM 30.7 °F - 23.2 °F 74% 30.07 in 10.0 mi Calm Calm - N/A   Clear
5:55 PM 30.6 °F - 23.4 °F 75% 30.07 in 10.0 mi Calm Calm - N/A   Clear
6:15 PM 28.6 °F - 21.7 °F 76% 30.07 in 10.0 mi Calm Calm - N/A   Clear
6:35 PM 28.2 °F - 21.9 °F 77% 30.07 in 10.0 mi Calm Calm - N/A   Clear
6:55 PM 28.0 °F - 22.6 °F 80% 30.07 in 10.0 mi Calm Calm - N/A   Clear
7:15 PM 26.2 °F - 22.5 °F 86% 30.08 in 10.0 mi Calm Calm - N/A   Clear
7:35 PM 25.7 °F - 22.3 °F 87% 30.08 in 10.0 mi Calm Calm - N/A   Clear
7:55 PM 25.5 °F - 22.8 °F 89% 30.08 in 10.0 mi Calm Calm - N/A   Clear
8:15 PM 23.9 °F - 23.5 °F 99% 30.07 in 10.0 mi Calm Calm - N/A   Clear
8:35 PM 23.9 °F - 23.9 °F 100% 30.08 in 10.0 mi Calm Calm - N/A   Clear
8:55 PM 24.6 °F - 24.3 °F 99% 30.08 in 10.0 mi Calm Calm - N/A   Clear
9:15 PM 23.2 °F - 22.8 °F 99% 30.08 in 10.0 mi Calm Calm - N/A   Clear
9:35 PM 23.4 °F - 23.4 °F 100% 30.09 in 10.0 mi Calm Calm - N/A   Clear
9:55 PM 24.4 °F - 23.7 °F 97% 30.09 in 10.0 mi Calm Calm - N/A   Clear
10:15 PM 25.2 °F - 22.3 °F 89% 30.09 in 10.0 mi Calm Calm - N/A   Clear
10:35 PM 24.1 °F - 21.2 °F 89% 30.10 in 10.0 mi Calm Calm - N/A   Clear
10:55 PM 23.9 °F - 21.0 °F 89% 30.10 in 10.0 mi Calm Calm - N/A   Clear
11:15 PM 23.4 °F - 20.7 °F 89% 30.11 in 10.0 mi Calm Calm - N/A   Clear
11:35 PM 23.0 °F - 20.3 °F 89% 30.12 in 10.0 mi Calm Calm - N/A   Clear
11:55 PM 23.0 °F - 19.6 °F 87% 30.10 in 10.0 mi Calm Calm - N/A   Clear